Погода в Покровке

Погода в Покровке : погода сейчас, прогноз погоды и архив. Всё, что Вы хотите узнать о погоде в Покровке!

Поиск расширенной информации на нашем сайте:

Полезная информация: Марс, юпитер, венера, все это космос

Другие новости

Новости СМИ2

Главная страница сайта

Новости сайта

03.07.2017

Напоминаем, что на нашем специализированном сайте Метеоцентр.Азия вы можете получить высокодетализированные автоматические прогнозы погоды по пунктам России, СНГ и мира в авиационном формате (включающие направление и скорость ветра, видимость, явления погоды, количество и форму облачности, нижнюю и верхнюю границу облачности).

Рекомендуем: заказать музыкантов

Погода в Покровке - сегодня

Время (UTC), дата Ветер
(°,м/с) 
Видим.   Явления Облачность Т
(°С)
Тd
(°С)
f(%) Тe
(°С)
Pmin
(гПа)
dP
(гПа)
Po
(мм)
O2
(г/м3)
Тmin Tmax R s Состояние
почвы
15 14.02.18 280 (З) 20000 м    ясно 
-12.9 -19.6 57 -16  1016.9  3.6  759  323           
18 14.02.18 360 (С) 20000 м    ясно 
-12.3 -20.8 49 -14  1019.1  2.2  761  323           
03 15.02.18 310 (СЗ) 20000 м    ясно 
-5.1 -19.2 32 -9  1019  -1  761  314           
06 15.02.18 300 (СЗ) 20000 м    ясно 
-2.6 -20 25 -5  1016.7  -2.2  759  310           
09 15.02.18 360 (С) 20000 м    ясно 
-6.1 -20 32 -6  1016.7  759  314    -2.1       
12 15.02.18 160 (Ю) 20000 м    ясно 
-8.6 -20 39 -11  1017.8  1.1  760  318           
15 15.02.18 200 (Ю) 20000 м    ясно 
-11.8 -19.5 53 -14  1018.3  0.4  760  322           
18 15.02.18 170 (Ю) 20000 м    ясно 
-14.7 -20.1 63 -18  1018.1  -0.2  760  325           
00 16.02.18 170 (Ю) 10 км    8/0 верхняя 
[Ci fib]
-11.9 -20 51 -15  1014.5  -2.3  757  321           
12 16.02.18 280 (З) 3{13}  20000 м    10/3 600 м кучево-дожд., верхняя 
[Cb cap|Ci fib]
-9.2 -19.2 44 -12  1011.8  2.5  755  316           
15 16.02.18 270 (З) 20000 м    ясно 
-11.2 -20 48 -13  1012.1  0.3  756  319           
18 16.02.18 320 (СЗ) 20000 м    10/10 600 м кучево-дожд. 
[Cb cap]
-12.3 -18.9 58 -16  1013  0.9  756  321           
00 17.02.18 310 (СЗ) 7-10{10}  20000 м    10/0 средняя 
[Ac As]
-11.6 -21.2 45 -18  1017.9  760  321           
03 17.02.18 320 (СЗ) 6{12}  20000 м    8/1 600 м верхняя 
[Cu hum|Ci fib]
-9.1 -22.9 32 -14  1018.4  0.6  760  319           
06 17.02.18 320 (СЗ) 7{11}  20000 м    8/4 600 м верхняя 
[Cu hum|Ci fib]
-7.9 -22.4 30 -13  1018.1  -0.3  760  317           
12 17.02.18 040 (СВ) 20000 м    ясно 
-14.6 -22.1 53 -17  1023.9  3.2  764  327           
15 17.02.18 030 (СВ) 20000 м    ясно 
-20.2 -24.5 69 -20  1025.3  1.2  765  335           
18 17.02.18 070 (В) 20000 м    ясно 
-21.8 -26.2 68 -22  1026.1  0.8  766  337           
00 18.02.18 180 (Ю) 10 км    ясно 
-15.8 -21.2 63 -16  1027.8  1.4  767  330  -25         
03 18.02.18 330 (СЗ) 20000 м    ясно 
-7.7 -21.4 32 -10  1026.1  -1.5  766  319           
06 18.02.18 080 (В) 20000 м    ясно 
-6 -19.8 33 -9  1023.2  -2.9  764  316           
09 18.02.18 060 (СВ) 20000 м    ясно 
-8.8 -21.9 34 -10  1023.1  0.1  764  320    -6       
12 18.02.18 170 (Ю) 20000 м    ясно 
-13.3 -21.8 49 -13  1023.5  0.3  764  325           
15 18.02.18 290 (З) 20000 м    ясно 
-16.9 -23.4 57 -19  1023.4  -0.2  764  330           
18 18.02.18 180 (Ю) 20000 м    ясно 
-17.4 -22.4 65 -18  1024.1  0.7  764  331           
Время (UTC), дата Ветер
(°,м/с) 
Видим.   Явления Облачность Т
(°С)
Тd
(°С)
f(%) Тe
(°С)
Pmin
(гПа)
dP
(гПа)
Po
(мм)
O2
(г/м3)
Тmin Tmax R s Состояние
почвы

Для получения пояснительной информации подведите курсор к названию столбца.

ПОГОДА в Покровке - архив

Всё, что Вы хотите узнать о погоде в Покровке - удобно и подробно!

Выберите нужную дату (начиная с 1 января 2015* года) и нажмите кнопку "Найти".
Будут отображены архивные сводки погоды по пункту Покровка, начиная с указанной даты.


Отображать данные в формате CSV (для использования в таблицах Excel)


Внимание! Наш архив погоды предназначен исключительно для личного некоммерческого использования в познавательных целях. Если Вам необходимы официальные справки о состоянии погоды (для производственных, юридических, коммерческих и т.п. целей), обращайтесь в органы Росгидромета.

*Примечание: данная дата относится к архиву по метеостанциям СССР (Россия, СНГ, Балтия).
Архив по метеостанциям Зарубежной Европы и Азии (кроме Китая) хранится 10 дней, по другим регионам земного шара (Китай, Африка, Америка, Австралия, Океания) - 1 день.

Покровка - район местоположения метеостанции


Название, широта, долгота, высота метеостанции:
Покровка 43.9°ш. 131.7°д. 61 м над ур. моря [Российская Федерация]

Дополнительная информация

В oтличие oт бoльшинства пoгoдных сайтoв мы публикуем пoдрoбную метеoинфoрмацию в детальнoм прoфессиoнальнoм фoрмате.

Характеристики температуры и влажнoсти вoздуха измеряются на высoте 2 м в тени вдали oт зданий и деревьев.
Скoрoсть ветра измеряется на высoте 10 м (на урoвне рoста челoвека скoрoсть ветра ниже в 1.5-2 раза). Если метеoстанция нахoдится в гoрoде или в лесу, тo скoрoсть ветра занижена на 2-4 м/с пo сравнению с oткрытым местoм. Скoрoсть ветра над акватoриями крупных рек и oзёр, а также на вершинах хoлмoв на 2-5 м/с выше, чем в oбычных услoвиях.
Атмoсфернoе давление в разных тoчках местнoсти мoжет значительнo oтличаться oт давления на метеoстанции, в зависимoсти oт услoвий рельефа (при пoдъёме на 10 м давление пoнижается примернo на 1 мм рт.ст.).